Regional Weather Roundup
Issued by NWS Glasgow, MT

Home | Current Version | Previous Version | Text Only | Print | Product List | Glossary On
Versions: 1 2 3 4 5 6 7 8 9 10 11 12 13 14 15 16 17 18 19 20 21 22 23 24 25 26 27 28 29 30 31 32 33 34 35 36 37 38 39 40 41 42 43 44 45 46 47 48 49 50
000
ASUS45 KGGW 122115
RWRGGW
HOURLY REGIONAL WEATHER ROUNDUP FOR NORTHEAST MONTANA
NATIONAL WEATHER SERVICE GLASGOW MONTANA
200 PM MST FRI FEB 12 2016

NOTE: "FAIR" INDICATES FEW OR NO CLOUDS BELOW 12,000 FEET WITH NO
SIGNIFICANT WEATHER AND/OR OBSTRUCTIONS TO VISISBILITY.

NORTHEAST MONTANA


CITY           SKY/WX    TMP DP  RH WIND       PRES   REMARKS
GLASGOW        CLOUDY    17  10  74 E20       30.33F
PLENTYWOOD       N/A     13   0  56 SE6         N/A
WOLF POINT     CLOUDY    17   7  64 E16       30.43F
JORDAN           N/A     29  26  89 E14       30.27F
WINNETT          N/A     38  33  82 CALM        N/A
SIDNEY         CLOUDY    19   9  63 SE10      30.47F
GLENDIVE       CLOUDY    21  18  86 E14       30.40F
MALTA            N/A     24  23  96 E7          N/A
SCOBEY           N/A     13  -6  42 E17       30.35F WCI  -4

FORT PECK REPORTS


CITY           SKY/WX    TMP DP  RH WIND       PRES   REMARKS
FORT PECK        N/A     17  12  80 E15         N/A
THE PINES        N/A     24  19  81 E5          N/A

SOUTHEAST MONTANA


CITY           SKY/WX    TMP DP  RH WIND       PRES   REMARKS
BILLINGS       CLOUDY    43  32  65 E7        30.18F
MILES CITY     FLURRIES  32  26  78 NE14      30.29F
BAKER          CLOUDY    25  16  68 E13       30.34F
LIVINGSTON     CLOUDY    54  35  48 NW12      30.12F

CENTRAL MONTANA


CITY           SKY/WX    TMP DP  RH WIND       PRES   REMARKS
HAVRE          CLOUDY    31  25  78 NE17      30.15F
LEWISTOWN      CLOUDY    40  32  73 E13       30.11F
GREAT FALLS    CLOUDY    50  37  61 SW7       30.08F
CUT BANK       MOSUNNY   43  32  65 SE15      30.04F
HELENA         CLOUDY    48  36  63 SE3       30.13F
BUTTE          SUNNY     41  34  76 CALM      30.16F
BOZEMAN        PTSUNNY   41  34  76 E3        30.15F

WESTERN MONTANA


CITY           SKY/WX    TMP DP  RH WIND       PRES   REMARKS
MISSOULA       CLOUDY    43  37  79 W5        30.17F
KALISPELL      NOT AVBL

NORTH DAKOTA


CITY           SKY/WX    TMP DP  RH WIND       PRES   REMARKS
WILLISTON      CLOUDY    14   0  53 E7        30.51F
DICKINSON      CLOUDY    11  -1  58 SE8       30.44S
MINOT          CLOUDY    10  -9  42 VRB3      30.57F
BISMARCK       CLOUDY    14   0  53 NE6       30.58F

SOUTHERN SASKATCHEWAN


CITY           SKY/WX    TMP DP  RH WIND       PRES   REMARKS
REGINA         PTSUNNY   10  -2  56 SE12G17   30.49F WCI  -4
MOOSE JAW      PTSUNNY    9   0  66 SE14      30.47F WCI  -8
ESTEVAN        PTSUNNY   14  -6  41 SE5       30.52F
SWIFT CURRENT  CLOUDY    12   7  79 SE23G29   30.25F WCI  -7




USA.gov is the U.S. government's official web portal to all federal, state and local government web resources and services.